| time (UTC) | temp F | wind direction | speed knots | gust knots | rain 1hr in | rain 24hr in | rain mn in | humidity % | barometer mb |
| 20260510090151 | 58 | 327 | 0.0 | 0.0 | 0.00 | 0.31 | 0.00 | 93 | 1014.4 |
| 20260510084652 | 57 | 284 | 0.0 | 0.0 | 0.00 | 0.31 | 0.00 | 95 | 1014.5 |
| 20260510083137 | 55 | 284 | 0.0 | 0.9 | 0.00 | 0.31 | 0.00 | 95 | 1014.6 |
| 20260510081651 | 55 | 50 | 0.0 | 0.0 | 0.00 | 0.31 | 0.00 | 96 | 1014.7 |
| 20260510080149 | 54 | 50 | 0.0 | 0.0 | 0.00 | 0.31 | 0.00 | 96 | 1014.6 |
| 20260510074651 | 53 | 50 | 0.0 | 0.0 | 0.00 | 0.31 | 0.00 | 96 | 1014.6 |
| 20260510073154 | 53 | 50 | 0.0 | 0.0 | 0.00 | 0.31 | 0.00 | 96 | 1014.6 |
| 20260510071652 | 53 | 50 | 0.0 | 0.0 | 0.00 | 0.31 | 0.00 | 96 | 1014.5 |
| 20260510070148 | 53 | 50 | 0.0 | 0.0 | 0.00 | 0.31 | 0.00 | 95 | 1014.4 |
| 20260510064651 | 53 | 50 | 0.0 | 0.0 | 0.00 | 0.31 | 0.00 | 96 | 1014.4 |
| 20260510063140 | 53 | 50 | 0.0 | 0.0 | 0.00 | 0.31 | 0.00 | 96 | 1014.4 |
| 20260510061651 | 53 | 50 | 0.0 | 0.9 | 0.00 | 0.31 | 0.00 | 96 | 1014.3 |
| 20260510060151 | 53 | 50 | 0.0 | 0.0 | 0.00 | 0.31 | 0.00 | 96 | 1014.2 |
| 20260510054652 | 52 | 50 | 0.0 | 0.0 | 0.00 | 0.31 | 0.00 | 96 | 1014.2 |
| 20260510053138 | 53 | 50 | 0.0 | 0.0 | 0.00 | 0.31 | 0.00 | 96 | 1014.0 |
| 20260510051651 | 53 | 50 | 0.0 | 0.0 | 0.00 | 0.31 | 0.00 | 95 | 1014.1 |
| 20260510050151 | 53 | 50 | 0.0 | 0.0 | 0.00 | 0.31 | 0.00 | 95 | 1014.0 |
| 20260510044652 | 52 | 50 | 0.0 | 0.0 | 0.00 | 0.31 | 0.00 | 95 | 1013.9 |
| 20260510043138 | 52 | 50 | 0.0 | 0.0 | 0.00 | 0.31 | 0.00 | 95 | 1014.1 |
| 20260510041651 | 52 | 50 | 0.0 | 0.0 | 0.00 | 0.31 | 0.00 | 95 | 1014.1 |
| 20260510034655 | 52 | 50 | 0.0 | 0.0 | 0.00 | 0.31 | 0.00 | 95 | 1014.2 |
| 20260510033137 | 52 | 50 | 0.0 | 0.0 | 0.00 | 0.31 | 0.00 | 95 | 1014.1 |
| 20260510031650 | 52 | 50 | 0.0 | 0.0 | 0.00 | 0.31 | 0.00 | 95 | 1014.2 |
| 20260510030149 | 52 | 50 | 0.0 | 0.0 | 0.00 | 0.31 | 0.00 | 95 | 1014.3 |
| 20260510024653 | 52 | 50 | 0.0 | 0.0 | 0.00 | 0.31 | 0.00 | 95 | 1014.3 |
| 20260510023154 | 52 | 50 | 0.0 | 0.0 | 0.00 | 0.31 | 0.00 | 95 | 1014.5 |
| 20260510021651 | 52 | 50 | 0.0 | 0.0 | 0.00 | 0.31 | 0.00 | 95 | 1014.6 |
| 20260510014651 | 53 | 52 | 0.0 | 0.0 | 0.00 | 0.31 | 0.00 | 95 | 1014.5 |
| 20260510013149 | 53 | 307 | 0.0 | 0.0 | 0.00 | 0.31 | 0.00 | 95 | 1014.3 |
| 20260510011643 | 54 | 307 | 0.0 | 0.0 | 0.00 | 0.31 | 0.00 | 95 | 1014.3 |
| 20260510010149 | 54 | 307 | 0.0 | 1.7 | 0.00 | 0.31 | 0.00 | 95 | 1014.3 |
| 20260510004650 | 54 | 67 | 0.0 | 0.0 | 0.00 | 0.31 | 0.00 | 95 | 1014.5 |
| 20260510003157 | 54 | 67 | 0.0 | 0.0 | 0.00 | 0.31 | 0.00 | 95 | 1014.5 |
| 20260510001652 | 54 | 67 | 0.0 | 0.0 | 0.00 | 0.31 | 0.00 | 95 | 1014.7 |
| 20260510000002 | 54 | 67 | 0.0 | 0.0 | 0.00 | 0.31 | 0.00 | 95 | 1014.8 |
| 20260509234651 | 54 | 67 | 0.0 | 0.0 | 0.00 | 0.31 | 0.00 | 94 | 1015.1 |
| 20260509233139 | 55 | 67 | 0.0 | 0.0 | 0.00 | 0.31 | 0.00 | 94 | 1015.1 |
| 20260509231651 | 55 | 67 | 0.0 | 0.0 | 0.00 | 0.31 | 0.00 | 94 | 1015.1 |
| 20260509224651 | 56 | 67 | 0.0 | 0.0 | 0.00 | 0.31 | 0.00 | 94 | 1015.2 |
| 20260509223157 | 56 | 67 | 0.0 | 0.0 | 0.00 | 0.31 | 0.00 | 94 | 1015.3 |
| 20260509221651 | 56 | 67 | 0.0 | 0.0 | 0.00 | 0.31 | 0.00 | 94 | 1015.0 |
| 20260509214649 | 56 | 67 | 0.0 | 0.0 | 0.00 | 0.31 | 0.31 | 94 | 1015.0 |
| 20260509213138 | 57 | 67 | 0.0 | 0.0 | 0.00 | 0.31 | 0.31 | 94 | 1015.0 |
| 20260509211650 | 57 | 67 | 0.0 | 0.0 | 0.00 | 0.31 | 0.31 | 94 | 1014.9 |
| 20260509204651 | 57 | 67 | 0.0 | 0.0 | 0.00 | 0.31 | 0.31 | 93 | 1014.7 |
| 20260509203141 | 57 | 67 | 0.0 | 0.0 | 0.00 | 0.31 | 0.31 | 93 | 1014.5 |
| 20260509201652 | 57 | 67 | 0.0 | 0.0 | 0.00 | 0.31 | 0.31 | 93 | 1014.3 |
| 20260509194651 | 57 | 67 | 0.0 | 0.0 | 0.00 | 0.31 | 0.31 | 93 | 1013.7 |
| 20260509193156 | 57 | 9 | 0.0 | 2.6 | 0.00 | 0.31 | 0.31 | 92 | 1013.3 |
| 20260509191653 | 58 | 280 | 0.0 | 1.7 | 0.00 | 0.31 | 0.31 | 92 | 1013.4 |
| 20260509184650 | 58 | 282 | 1.7 | 6.1 | 0.01 | 0.31 | 0.31 | 92 | 1012.8 |
| 20260509183155 | 57 | 284 | 0.0 | 5.2 | 0.02 | 0.31 | 0.31 | 93 | 1012.7 |
| 20260509181653 | 57 | 283 | 0.0 | 2.6 | 0.02 | 0.31 | 0.31 | 93 | 1012.4 |
| 20260509180148 | 57 | 287 | 2.6 | 7.0 | 0.05 | 0.31 | 0.31 | 93 | 1012.3 |
| 20260509174652 | 57 | 265 | 0.9 | 5.2 | 0.06 | 0.30 | 0.30 | 93 | 1012.2 |
| 20260509173157 | 57 | 273 | 0.0 | 6.1 | 0.07 | 0.28 | 0.28 | 93 | 1012.2 |
| 20260509171651 | 57 | 346 | 1.7 | 4.3 | 0.09 | 0.28 | 0.28 | 92 | 1012.4 |
| 20260509170133 | 57 | 146 | 0.0 | 0.9 | 0.10 | 0.26 | 0.26 | 92 | 1012.8 |
| 20260509164651 | 58 | 146 | 0.0 | 0.0 | 0.13 | 0.24 | 0.24 | 92 | 1013.4 |
| 20260509163137 | 58 | 146 | 0.0 | 0.0 | 0.17 | 0.21 | 0.21 | 91 | 1013.7 |
| 20260509161652 | 58 | 146 | 0.0 | 0.0 | 0.19 | 0.19 | 0.19 | 90 | 1014.2 |
| 20260509160149 | 58 | 82 | 0.0 | 3.5 | 0.15 | 0.15 | 0.15 | 89 | 1014.4 |
| 20260509154653 | 59 | 155 | 1.7 | 7.0 | 0.10 | 0.10 | 0.10 | 87 | 1014.5 |
| 20260509151650 | 60 | 191 | 1.7 | 5.2 | 0.00 | 0.00 | 0.00 | 83 | 1012.8 |
| 20260509144653 | 62 | 181 | 0.9 | 5.2 | 0.00 | 0.00 | 0.00 | 79 | 1012.1 |
| 20260509143139 | 62 | 111 | 1.7 | 5.2 | 0.00 | 0.00 | 0.00 | 78 | 1012.3 |
| 20260509141651 | 63 | 138 | 0.0 | 0.9 | 0.00 | 0.00 | 0.00 | 80 | 1012.7 |
| 20260509140148 | 64 | 140 | 0.0 | 0.0 | 0.00 | 0.00 | 0.00 | 78 | 1013.2 |
| 20260509134651 | 64 | 140 | 0.0 | 6.1 | 0.00 | 0.00 | 0.00 | 77 | 1013.5 |
| 20260509133156 | 64 | 192 | 0.0 | 0.0 | 0.00 | 0.00 | 0.00 | 77 | 1013.6 |
| 20260509131652 | 64 | 192 | 0.0 | 0.9 | 0.00 | 0.00 | 0.00 | 77 | 1013.6 |
| 20260509124652 | 63 | 192 | 0.0 | 3.5 | 0.00 | 0.00 | 0.00 | 82 | 1013.4 |
| 20260509123139 | 63 | 143 | 0.0 | 0.9 | 0.00 | 0.00 | 0.00 | 86 | 1013.1 |
| 20260509121651 | 63 | 143 | 0.0 | 0.0 | 0.00 | 0.00 | 0.00 | 85 | 1013.7 |
| 20260509120150 | 63 | 180 | 0.0 | 2.6 | 0.00 | 0.00 | 0.00 | 83 | 1014.3 |
| 20260509114651 | 64 | 116 | 0.9 | 8.7 | 0.00 | 0.00 | 0.00 | 77 | 1014.7 |
| 20260509113154 | 65 | 112 | 4.3 | 8.7 | 0.00 | 0.00 | 0.00 | 72 | 1014.8 |
| 20260509111653 | 65 | 146 | 0.9 | 7.0 | 0.00 | 0.00 | 0.00 | 72 | 1014.8 |
| 20260509110151 | 66 | 150 | 0.9 | 4.3 | 0.00 | 0.00 | 0.00 | 73 | 1014.6 |
| 20260509104651 | 66 | 169 | 0.0 | 0.0 | 0.00 | 0.00 | 0.00 | 72 | 1014.7 |
| 20260509103157 | 65 | 183 | 0.0 | 0.0 | 0.00 | 0.00 | 0.00 | 73 | 1015.0 |
| 20260509101651 | 65 | 167 | 0.0 | 0.0 | 0.00 | 0.00 | 0.00 | 72 | 1014.8 |
| 20260509100150 | 64 | 334 | 0.0 | 0.0 | 0.00 | 0.00 | 0.00 | 73 | 1014.8 |
| 20260509094651 | 63 | 355 | 0.0 | 0.0 | 0.00 | 0.00 | 0.00 | 74 | 1014.9 |
| 20260509093138 | 62 | 28 | 0.0 | 4.3 | 0.00 | 0.00 | 0.00 | 76 | 1014.9 |
| 20260509091651 | 62 | 53 | 0.9 | 3.5 | 0.00 | 0.00 | 0.00 | 77 | 1014.8 |